Surface/Precipitation History
02/27/2017 02:56  to  2/28/2017 02:56
Change End Date:
Date/Time
(MST)
Sf
Temp Chem Water Layer Surface Precipitation
Sfc Pvt Sub Frz Factor Pct Dpth DpthThk IcePct Cond Salin FI Type Intens Accum Rate
02/28/2017 02:42 Ice Watch 17.8F - 22F - 25 - - - - 0 mhos 113 - None None - -
02/28/2017 02:37 Ice Watch 17.8F - 22F - 20 - - - - 0 mhos 112 - None None - -
02/28/2017 02:27 Ice Watch 17.8F - 22F - 20 - - - - 0 mhos 108 - None None - -
02/28/2017 02:27 Ice Watch 17.8F - 22F - 20 - - - - 0 mhos 108 - None None - -
02/28/2017 02:17 Ice Watch 18.0F - 22F - 20 - - - - 0 mhos 104 - None None - -
02/28/2017 02:12 Ice Watch 18.0F - 22F - 20 - - - - 0 mhos 102 - None None - -
02/28/2017 02:07 Ice Watch 18.1F - 22F - 15 - - - - 0 mhos 99 - None None - -
02/28/2017 01:57 Ice Watch 18.3F - 22F - 15 - - - - 0 mhos 96 - None None - -
02/28/2017 01:57 Ice Watch 18.5F - 22F - 15 - - - - 0 mhos 94 - None None - -
02/28/2017 01:47 Ice Watch 18.5F - 23F - 15 - - - - 0 mhos 93 - None None - -
02/28/2017 01:42 Ice Watch 18.7F - 23F - 15 - - - - 0 mhos 90 - None None - -
02/28/2017 01:37 Ice Watch 18.5F - 23F - 15 - - - - 0 mhos 91 - None None - -
02/28/2017 01:27 Ice Watch 18.7F - 23F - 10 - - - - 0 mhos 87 - None None - -
02/28/2017 01:27 Ice Watch 18.7F - 23F - 10 - - - - 0 mhos 87 - None None - -
02/28/2017 01:17 Ice Watch 19.0F - 23F - 10 - - - - 0 mhos 84 - None None - -
Date/Time
(MST)
Sf
Temp Chem Water Layer Surface Precipitation
Sfc Pvt Sub Frz Factor Pct Dpth DpthThk IcePct Cond Salin FI Type Intens Accum Rate
02/28/2017 01:12 Ice Watch 19.0F - 23F - 10 - - - - 0 mhos 83 - None None - -
02/28/2017 01:07 Ice Watch 19.0F - 23F - 10 - - - - 0 mhos 83 - None None - -
02/28/2017 00:57 Ice Watch 19.0F - 23F - 10 - - - - 0 mhos 83 - None None - -
02/28/2017 00:57 Ice Watch 19.0F - 23F - 10 - - - - 0 mhos 83 - None None - -
02/28/2017 00:47 Ice Watch 19.2F - 24F - 10 - - - - 0 mhos 84 - None None - -
02/28/2017 00:42 Ice Watch 19.4F - 24F - 10 - - - - 0 mhos 84 - None None - -
02/28/2017 00:37 Ice Watch 19.4F - 24F - 10 - - - - 0 mhos 85 - None None - -
02/28/2017 00:27 Ice Watch 19.6F - 24F - 10 - - - - 0 mhos 85 - None None - -
02/28/2017 00:27 Ice Watch 19.6F - 24F - 10 - - - - 0 mhos 85 - None None - -
02/28/2017 00:17 Ice Watch 19.6F - 24F - 15 - - - - 0 mhos 87 - None None - -
02/28/2017 00:12 Ice Watch 19.6F - 24F - 15 - - - - 0 mhos 86 - None None - -
02/28/2017 00:07 Ice Watch 19.4F - 24F - 15 - - - - 0 mhos 86 - None None - -
02/27/2017 23:57 Ice Watch 19.4F - 24F - 15 - - - - 0 mhos 83 - None None - -
02/27/2017 23:57 Ice Watch 19.4F - 24F - 15 - - - - 0 mhos 83 - None None - -
02/27/2017 23:47 Ice Watch 19.6F - 25F - 15 - - - - 0 mhos 79 - None None - -
Date/Time
(MST)
Sf
Temp Chem Water Layer Surface Precipitation
Sfc Pvt Sub Frz Factor Pct Dpth DpthThk IcePct Cond Salin FI Type Intens Accum Rate
02/27/2017 23:42 Ice Watch 19.6F - 25F - 15 - - - - 0 mhos 78 - None None - -
02/27/2017 23:37 Ice Watch 19.8F - 25F - 10 - - - - 0 mhos 77 - None None - -
02/27/2017 23:27 Ice Watch 20.1F - 25F - 10 - - - - 0 mhos 74 - None None - -
02/27/2017 23:27 Ice Watch 20.1F - 25F - 10 - - - - 0 mhos 72 - None None - -
02/27/2017 23:16 Ice Watch 20.7F - 26F - 10 - - - - 0 mhos 70 - None None - -
02/27/2017 23:12 Ice Watch 20.8F - 26F - 10 - - - - 0 mhos 69 - None None - -
02/27/2017 23:06 Ice Watch 21.0F - 26F - 10 - - - - 0 mhos 67 - None None - -
02/27/2017 22:57 Ice Watch 21.4F - 26F - 10 - - - - 0 mhos 66 - None None - -
02/27/2017 22:56 Ice Watch 21.4F - 26F - 10 - - - - 0 mhos 66 - None None - -
02/27/2017 22:46 Ice Watch 21.7F - 26F - 10 - - - - 0 mhos 64 - None None - -
02/27/2017 22:42 Ice Watch 21.7F - 26F - 10 - - - - 0 mhos 64 - None None - -
02/27/2017 22:36 Ice Watch 21.9F - 26F - 10 - - - - 0 mhos 64 - None None - -
02/27/2017 22:27 Ice Watch 21.7F - 26F - 10 - - - - 0 mhos 66 - None None - -
02/27/2017 22:26 Ice Watch 21.7F - 26F - 15 - - - - 0 mhos 66 - None None - -
02/27/2017 22:16 Ice Watch 21.2F - 27F - 15 - - - - 0 mhos 66 - None None - -
Date/Time
(MST)
Sf
Temp Chem Water Layer Surface Precipitation
Sfc Pvt Sub Frz Factor Pct Dpth DpthThk IcePct Cond Salin FI Type Intens Accum Rate
02/27/2017 22:12 Ice Watch 21.0F - 27F - 15 - - - - 0 mhos 66 - None None - -
02/27/2017 22:06 Ice Watch 21.2F - 27F - 10 - - - - 0 mhos 63 - None None - -
02/27/2017 21:57 Ice Watch 21.6F - 27F - 10 - - - - 0 mhos 61 - None None - -
02/27/2017 21:56 Ice Watch 21.6F - 27F - 10 - - - - 0 mhos 61 - None None - -
02/27/2017 21:46 Ice Watch 21.7F - 28F - 10 - - - - 0 mhos 59 - None None - -
02/27/2017 21:42 Ice Watch 22.1F - 28F - 10 - - - - 0 mhos 57 - None None - -
02/27/2017 21:36 Ice Watch 22.5F - 28F - 10 - - - - 0 mhos 56 - None None - -
02/27/2017 21:27 Ice Watch 23.2F - 28F - 10 - - - - 0 mhos 52 - None None - -
02/27/2017 21:26 Ice Watch 23.2F - 28F - 10 - - - - 0 mhos 51 - None None - -
02/27/2017 21:16 Ice Watch 23.4F - 28F - 10 - - - - 0 mhos 43 - None None - -
02/27/2017 21:12 Ice Watch 23.5F - 28F - 10 - - - - 0 mhos 41 - None None - -
02/27/2017 21:06 Ice Watch 23.7F - 28F - 10 - - - - 0 mhos 41 - None None - -
02/27/2017 20:57 Ice Watch 24.1F - 29F - 10 - - - - 0 mhos 39 - None None - -
02/27/2017 20:56 Ice Watch 24.3F - 29F - 10 - - - - 0 mhos 38 - None None - -
02/27/2017 20:46 Ice Watch 24.6F - 29F - 10 - - - - 0 mhos 36 - None None - -
Date/Time
(MST)
Sf
Temp Chem Water Layer Surface Precipitation
Sfc Pvt Sub Frz Factor Pct Dpth DpthThk IcePct Cond Salin FI Type Intens Accum Rate
02/27/2017 20:42 Ice Watch 24.8F - 29F - 10 - - - - 0 mhos 35 - None None - -
02/27/2017 20:36 Ice Watch 25.0F - 29F - 10 - - - - 0 mhos 35 - None None - -
02/27/2017 20:27 Ice Watch 24.8F - 29F - 10 - - - - 0 mhos 32 - None None - -
02/27/2017 20:26 Ice Watch 25.0F - 29F - 10 - - - - 0 mhos 32 - None None - -
02/27/2017 20:16 Ice Watch 25.2F - 29F - 10 - - - - 0 mhos 33 - None None - -
02/27/2017 20:12 Ice Watch 25.2F - 29F - 10 - - - - 0 mhos 34 - None None - -
02/27/2017 20:06 Ice Watch 25.3F - 29F - 10 - - - - 0 mhos 35 - None None - -
02/27/2017 19:57 Ice Watch 25.5F - 29F - 10 - - - - 0 mhos 35 - None None - -
02/27/2017 19:56 Ice Watch 25.5F - 29F - 10 - - - - 0 mhos 35 - None None - -
02/27/2017 19:46 Ice Watch 25.9F - 30F - 10 - - - - 0 mhos 34 - None None - -
02/27/2017 19:42 Ice Watch 26.2F - 30F - 15 - - - - 0 mhos 33 - None None - -
02/27/2017 19:35 Ice Watch 26.4F - 30F - 15 - - - - 0 mhos 31 - None None - -
02/27/2017 19:27 Ice Watch 26.8F - 30F - 15 - - - - 0 mhos 25 - None None - -
02/27/2017 19:25 Ice Watch 27.0F - 30F - 10 - - - - 0 mhos 25 - None None - -
02/27/2017 19:15 Ice Watch 27.0F - 30F - 5 - - - - 0 mhos 23 - None None - -
Date/Time
(MST)
Sf
Temp Chem Water Layer Surface Precipitation
Sfc Pvt Sub Frz Factor Pct Dpth DpthThk IcePct Cond Salin FI Type Intens Accum Rate
02/27/2017 19:12 Ice Watch 27.1F - 30F - 10 - - - - 0 mhos 23 - None None - -
02/27/2017 19:05 Ice Watch 27.0F - 30F - 10 - - - - 0 mhos 23 - None None - -
02/27/2017 18:57 Ice Watch 26.6F - 30F - 5 - - - - 0 mhos 23 - None None - -
02/27/2017 18:55 Ice Watch 26.6F - 30F - 5 - - - - 0 mhos 23 - None None - -
02/27/2017 18:45 Ice Watch 26.2F - 31F - 10 - - - - 0 mhos 23 - None None - -
02/27/2017 18:42 Ice Watch 26.1F - 31F - 5 - - - - 0 mhos 23 - None None - -
02/27/2017 18:35 Ice Watch 26.2F - 31F - 5 - - - - 0 mhos 22 - None None - -
02/27/2017 18:27 Ice Watch 26.8F - 31F - 5 - - - - 0 mhos 21 - None None - -
02/27/2017 18:25 Ice Watch 26.8F - 31F - 5 - - - - 0 mhos 21 - None None - -
02/27/2017 18:15 Ice Watch 27.9F - 31F - 5 - - - - 0 mhos 20 - None None - -
02/27/2017 18:12 Ice Watch 28.4F - 31F - 5 - - - - 0 mhos 21 - None None - -
02/27/2017 18:05 Ice Watch 28.8F - 31F - 5 - - - - 0 mhos 18 - None None - -
02/27/2017 17:57 Ice Watch 29.3F - 32F - 5 - - - - 0 mhos 9 - None None - -
02/27/2017 17:55 Ice Watch 29.5F - 32F - 5 - - - - 0 mhos 9 - None None - -
02/27/2017 17:45 Ice Watch 30.7F - 32F - 5 - - - - 0 mhos 8 - None None - -
Date/Time
(MST)
Sf
Temp Chem Water Layer Surface Precipitation
Sfc Pvt Sub Frz Factor Pct Dpth DpthThk IcePct Cond Salin FI Type Intens Accum Rate
02/27/2017 17:42 Ice Watch 31.1F - 32F - 5 - - - - 0 mhos 7 - None None - -
02/27/2017 17:35 Trace Moisture 32.2F - 33F - 5 - - - - 0 mhos 7 - None None - -
02/27/2017 17:27 Trace Moisture 32.4F - 33F - 5 - - - - 0 mhos 6 - None None - -
02/27/2017 17:25 Trace Moisture 32.7F - 33F - 5 - - - - 0 mhos 6 - None None - -
02/27/2017 17:15 Trace Moisture 33.6F - 33F - 5 - - - - 0 mhos 6 - None None - -
02/27/2017 17:12 Trace Moisture 33.8F - 33F - 5 - - - - 0 mhos 5 - None None - -
02/27/2017 17:05 Trace Moisture 34.5F - 34F - 5 - - - - 0 mhos 5 - None None - -
02/27/2017 16:57 Trace Moisture 35.2F - 34F - 5 - - - - 0 mhos 5 - None None - -
02/27/2017 16:55 Trace Moisture 35.6F - 34F - 5 - - - - 0 mhos 5 - None None - -
02/27/2017 16:45 Trace Moisture 35.4F - 34F - 5 - - - - 0 mhos 5 - None None - -
02/27/2017 16:42 Trace Moisture 35.2F - 35F - 5 - - - - 0 mhos 5 - None None - -
02/27/2017 16:35 Trace Moisture 35.6F - 35F - 5 - - - - 0 mhos 5 - None None - -
02/27/2017 16:27 Trace Moisture 36.0F - 35F - 5 - - - - 0 mhos 5 - None None - -
02/27/2017 16:25 Trace Moisture 36.1F - 35F - 5 - - - - 0 mhos 5 - None None - -
02/27/2017 16:14 Trace Moisture 36.9F - 35F - 5 - - - - 0 mhos 5 - None None - -
Date/Time
(MST)
Sf
Temp Chem Water Layer Surface Precipitation
Sfc Pvt Sub Frz Factor Pct Dpth DpthThk IcePct Cond Salin FI Type Intens Accum Rate
02/27/2017 16:12 Trace Moisture 36.9F - 36F - 5 - - - - 0 mhos 4 - None None - -
02/27/2017 16:04 Trace Moisture 37.8F - 36F - 5 - - - - 0 mhos 4 - None None - -
02/27/2017 15:57 Trace Moisture 38.7F - 36F - 5 - - - - 0 mhos 3 - None None - -
02/27/2017 15:54 Trace Moisture 39.4F - 36F - 5 - - - - 0 mhos 3 - None None - -
02/27/2017 15:44 Trace Moisture 40.5F - 36F - 5 - - - - 0 mhos 2 - None None - -
02/27/2017 15:42 Trace Moisture 40.6F - 37F - 5 - - - - 0 mhos 2 - None None - -
02/27/2017 15:34 Dry 41.5F - 37F - - - - - - 0 mhos 1 - None None - -
02/27/2017 15:27 Dry 43.0F - 36F - - - - - - 0 mhos 1 - None None - -
02/27/2017 15:24 Dry 43.2F - 36F - - - - - - 0 mhos 1 - None None - -
02/27/2017 15:14 Dry 45.9F - 36F - - - - - - 0 mhos 2 - None None - -
02/27/2017 15:12 Dry 45.9F - 35F - - - - - - 0 mhos 2 - None None - -
02/27/2017 15:04 Dry 43.5F - 35F - - - - - - 0 mhos 2 - None None - -
02/27/2017 14:57 Dry 42.1F - 35F - - - - - - 0 mhos 0 - None None - -
02/27/2017 14:54 Dry 42.4F - 35F - - - - - - 0 mhos 0 - None None - -
02/27/2017 14:44 Dry 39.4F - 34F - - - - - - 0 mhos 1 - None None - -
Date/Time
(MST)
Sf
Temp Chem Water Layer Surface Precipitation
Sfc Pvt Sub Frz Factor Pct Dpth DpthThk IcePct Cond Salin FI Type Intens Accum Rate
02/27/2017 14:42 Dry 39.2F - 34F - - - - - - 0 mhos 1 - None None - -
02/27/2017 14:34 Dry 38.7F - 34F - - - - - - 0 mhos 1 - None None - -
02/27/2017 14:27 Trace Moisture 38.3F - 34F - 5 - - - - 0 mhos 1 - None None - -
02/27/2017 14:24 Trace Moisture 38.3F - 34F - 5 - - - - 0 mhos 1 - None None - -
02/27/2017 14:14 Trace Moisture 39.0F - 34F - 5 - - - - 0 mhos 1 - None None - -
02/27/2017 14:12 Trace Moisture 39.0F - 34F - 5 - - - - 0 mhos 1 - None None - -
02/27/2017 14:04 Trace Moisture 38.8F - 34F - 5 - - - - 0 mhos 0 - None None - -
02/27/2017 13:57 Dry 39.0F - 34F - - - - - - 0 mhos 0 - None None - -
02/27/2017 13:54 Dry 39.2F - 34F - - - - - - 0 mhos 0 - None None - -
02/27/2017 13:44 Dry 39.6F - 34F - - - - - - 0 mhos 0 - None None - -
02/27/2017 13:42 Dry 39.7F - 34F - - - - - - 0 mhos 0 - None None - -
02/27/2017 13:34 Dry 39.6F - 34F - - - - - - 0 mhos 0 - None None - -
02/27/2017 13:27 Dry 39.9F - 34F - - - - - - 0 mhos 0 - None None - -
02/27/2017 13:24 Dry 40.1F - 34F - - - - - - 0 mhos 0 - None None - -
02/27/2017 13:14 Dry 40.5F - 34F - - - - - - 0 mhos 0 - None None - -
Date/Time
(MST)
Sf
Temp Chem Water Layer Surface Precipitation
Sfc Pvt Sub Frz Factor Pct Dpth DpthThk IcePct Cond Salin FI Type Intens Accum Rate
02/27/2017 13:12 Dry 40.6F - 34F - - - - - - 0 mhos 0 - None None - -
02/27/2017 13:04 Dry 41.2F - 33F - - - - - - 0 mhos 0 - None None - -
02/27/2017 12:57 Dry 41.0F - 33F - - - - - - 0 mhos 0 - None None - -
02/27/2017 12:54 Dry 40.6F - 33F - - - - - - 0 mhos 0 - None None - -
02/27/2017 12:44 Dry 40.8F - 33F - - - - - - 0 mhos 0 - None None - -
02/27/2017 12:42 Dry 41.0F - 33F - - - - - - 0 mhos 0 - None None - -
02/27/2017 12:33 Dry 40.8F - 33F - - - - - - 0 mhos 0 - None None - -
02/27/2017 12:27 Dry 40.1F - 32F - - - - - - 0 mhos 0 - None None - -
02/27/2017 12:23 Dry 40.6F - 32F - - - - - - 0 mhos 0 - None None - -
02/27/2017 12:13 Dry 41.9F - 31F - - - - - - 0 mhos 0 - None None - -
02/27/2017 12:12 Dry 41.2F - 31F - - - - - - 0 mhos 0 - None None - -
02/27/2017 12:03 Dry 40.5F - 31F - - - - - - 0 mhos 0 - None None - -
02/27/2017 11:57 Dry 40.8F - 30F - - - - - - 0 mhos 0 - None None - -
02/27/2017 11:53 Dry 40.8F - 30F - - - - - - 0 mhos 1 - None None - -
02/27/2017 11:43 Dry 41.0F - 29F - - - - - - 0 mhos 1 - None None - -
Date/Time
(MST)
Sf
Temp Chem Water Layer Surface Precipitation
Sfc Pvt Sub Frz Factor Pct Dpth DpthThk IcePct Cond Salin FI Type Intens Accum Rate
02/27/2017 11:42 Dry 40.6F - 29F - - - - - - 0 mhos 1 - None None - -
02/27/2017 11:33 Dry 39.4F - 29F - - - - - - 0 mhos 3 - None None - -
02/27/2017 11:27 Dry 38.3F - 28F - - - - - - 0 mhos 4 - None None - -
02/27/2017 11:23 Dry 38.1F - 28F - - - - - - 0 mhos 4 - None None - -
02/27/2017 11:13 Dry 37.2F - 28F - - - - - - 0 mhos 5 - None None - -
02/27/2017 11:12 Dry 36.9F - 28F - - - - - - 0 mhos 5 - None None - -
02/27/2017 11:03 Dry 36.1F - 27F - - - - - - 0 mhos 6 - None None - -
02/27/2017 10:57 Dry 37.4F - 26F - - - - - - 0 mhos 7 - None None - -
02/27/2017 10:53 Trace Moisture 36.5F - 26F - 5 - - - - 0 mhos 8 - None None - -
02/27/2017 10:43 Ice Watch 31.1F - 25F - 5 - - - - 0 mhos 13 - None None - -
02/27/2017 10:42 Ice Watch 30.0F - 25F - 5 - - - - 0 mhos 15 - None None - -
02/27/2017 10:33 Ice Watch 27.5F - 24F - 5 - - - - 0 mhos 20 - None None - -
02/27/2017 10:27 Ice Watch 27.0F - 24F - 5 - - - - 0 mhos 23 - None None - -
02/27/2017 10:23 Ice Watch 26.8F - 24F - 5 - - - - 0 mhos 24 - None None - -
02/27/2017 10:13 Ice Watch 26.2F - 24F - 5 - - - - 0 mhos 28 - None None - -
Date/Time
(MST)
Sf
Temp Chem Water Layer Surface Precipitation
Sfc Pvt Sub Frz Factor Pct Dpth DpthThk IcePct Cond Salin FI Type Intens Accum Rate
02/27/2017 10:12 Ice Watch 26.2F - 24F - 5 - - - - 0 mhos 29 - None None - -
02/27/2017 10:03 Ice Watch 25.2F - 23F - 5 - - - - 0 mhos 36 - None None - -
02/27/2017 09:57 Ice Watch 24.3F - 23F - 5 - - - - 0 mhos 41 - None None - -
02/27/2017 09:53 Ice Watch 24.1F - 23F - 10 - - - - 0 mhos 44 - None None - -
02/27/2017 09:43 Ice Watch 24.3F - 23F - 10 - - - - 0 mhos 48 - None None - -
02/27/2017 09:42 Ice Watch 24.3F - 23F - 10 - - - - 0 mhos 48 - None None - -
02/27/2017 09:33 Ice Watch 24.4F - 22F - 10 - - - - 0 mhos 55 - None None - -
02/27/2017 09:27 Ice Watch 24.6F - 22F - 10 - - - - 0 mhos 59 - None None - -
02/27/2017 09:22 Ice Watch 24.4F - 22F - 10 - - - - 0 mhos 62 - None None - -
02/27/2017 09:12 Ice Watch 24.3F - 21F - 10 - - - - 0 mhos 81 - None None - -
02/27/2017 09:12 Ice Watch 24.3F - 21F - 10 - - - - 0 mhos 81 - None None - -
02/27/2017 09:02 Ice Watch 21.2F - 20F - 10 - - - - 1 mhos 123 - None None - -
02/27/2017 08:57 Ice Watch 19.4F - 20F - 20 - - - - 1 mhos 145 - None None - -
02/27/2017 08:52 Ice Watch 18.9F - 20F - 20 - - - - 1 mhos 155 - None None - -
02/27/2017 08:42 Ice Watch 19.0F - 19F - 30 - - - - 1 mhos 161 - None None - -
Date/Time
(MST)
Sf
Temp Chem Water Layer Surface Precipitation
Sfc Pvt Sub Frz Factor Pct Dpth DpthThk IcePct Cond Salin FI Type Intens Accum Rate
02/27/2017 08:32 Ice Watch 18.0F - 19F - 45 - - - - 1 mhos 183 - None None - -
02/27/2017 08:27 Ice Watch 16.5F - 19F - 60 - - - - 1 mhos 204 - None None - -
02/27/2017 08:22 Ice Watch 15.6F - 18F - 60 - - - - 1 mhos 214 - None None - -
02/27/2017 08:12 Ice Watch 15.1F - 18F - 60 - - - - 1 mhos 215 - None None - -
02/27/2017 08:12 Ice Watch 15.1F - 18F - 60 - - - - 1 mhos 215 - None None - -
02/27/2017 08:02 Ice Watch 14.9F - 18F - 65 - - - - 1 mhos 217 - None None - -
02/27/2017 07:57 Ice Watch 14.9F - 18F - 65 - - - - 1 mhos 216 - None None - -
02/27/2017 07:52 Ice Watch 14.7F - 18F - 65 - - - - 1 mhos 215 - None None - -
02/27/2017 07:42 Ice Watch 14.4F - 18F - 65 - - - - 0 mhos 213 - None None - -
02/27/2017 07:42 Ice Watch 14.4F - 18F - 65 - - - - 0 mhos 213 - None None - -
02/27/2017 07:32 Ice Watch 14.2F - 18F - 65 - - - - 0 mhos 207 - None None - -
02/27/2017 07:27 Ice Watch 14.0F - 19F - 65 - - - - 0 mhos 206 - None None - -
02/27/2017 07:22 Ice Watch 14.0F - 19F - 65 - - - - 0 mhos 201 - None None - -
02/27/2017 07:12 Ice Watch 14.0F - 19F - 65 - - - - 0 mhos 192 - None None - -
02/27/2017 07:12 Ice Watch 14.0F - 19F - 65 - - - - 0 mhos 192 - None None - -
Date/Time
(MST)
Sf
Temp Chem Water Layer Surface Precipitation
Sfc Pvt Sub Frz Factor Pct Dpth DpthThk IcePct Cond Salin FI Type Intens Accum Rate
02/27/2017 07:02 Ice Watch 14.0F - 19F - 60 - - - - 0 mhos 180 - None None - -
02/27/2017 06:57 Ice Watch 14.2F - 19F - 55 - - - - 0 mhos 174 - None None - -
02/27/2017 06:52 Ice Watch 14.2F - 19F - 55 - - - - 0 mhos 169 - None None - -
02/27/2017 06:42 Ice Watch 14.2F - 19F - 40 - - - - 0 mhos 163 - None None - -
02/27/2017 06:42 Ice Watch 14.2F - 19F - 40 - - - - 0 mhos 163 - None None - -
02/27/2017 06:32 Ice Watch 14.5F - 19F - 35 - - - - 0 mhos 156 - None None - -
02/27/2017 06:27 Ice Watch 14.5F - 19F - 30 - - - - 0 mhos 153 - None None - -
02/27/2017 06:22 Ice Watch 14.5F - 19F - 35 - - - - 0 mhos 153 - None None - -
02/27/2017 06:12 Ice Watch 14.7F - 20F - 35 - - - - 0 mhos 151 - None None - -
02/27/2017 06:11 Ice Watch 14.7F - 20F - 35 - - - - 0 mhos 151 - None None - -
02/27/2017 06:01 Ice Watch 14.9F - 20F - 35 - - - - 0 mhos 147 - None None - -
02/27/2017 05:57 Ice Watch 14.9F - 20F - 35 - - - - 0 mhos 146 - None None - -
02/27/2017 05:51 Ice Watch 14.9F - 20F - 35 - - - - 0 mhos 144 - None None - -
02/27/2017 05:42 Ice Watch 14.9F - 20F - 35 - - - - 0 mhos 138 - None None - -
02/27/2017 05:41 Ice Watch 14.9F - 20F - 35 - - - - 0 mhos 138 - None None - -
Date/Time
(MST)
Sf
Temp Chem Water Layer Surface Precipitation
Sfc Pvt Sub Frz Factor Pct Dpth DpthThk IcePct Cond Salin FI Type Intens Accum Rate
02/27/2017 05:31 Ice Watch 15.3F - 20F - 30 - - - - 0 mhos 131 - None None - -
02/27/2017 05:27 Ice Watch 15.4F - 20F - 30 - - - - 0 mhos 127 - None None - -
02/27/2017 05:21 Ice Watch 15.6F - 20F - 30 - - - - 0 mhos 125 - None None - -
02/27/2017 05:12 Ice Watch 16.0F - 21F - 30 - - - - 0 mhos 120 - None None - -
02/27/2017 05:11 Ice Watch 16.0F - 21F - 30 - - - - 0 mhos 120 - None None - -
02/27/2017 05:01 Ice Watch 16.3F - 21F - 20 - - - - 0 mhos 116 - None None - -
02/27/2017 04:57 Ice Watch 16.5F - 21F - 20 - - - - 0 mhos 114 - None None - -
02/27/2017 04:51 Ice Watch 16.5F - 21F - 20 - - - - 0 mhos 113 - None None - -
02/27/2017 04:42 Ice Watch 16.9F - 21F - 20 - - - - 0 mhos 109 - None None - -
02/27/2017 04:41 Ice Watch 16.9F - 21F - 20 - - - - 0 mhos 109 - None None - -
02/27/2017 04:31 Ice Watch 16.9F - 22F - 20 - - - - 0 mhos 106 - None None - -
02/27/2017 04:27 Ice Watch 17.1F - 22F - 20 - - - - 0 mhos 105 - None None - -
02/27/2017 04:21 Ice Watch 17.4F - 22F - 20 - - - - 0 mhos 102 - None None - -
02/27/2017 04:12 Ice Watch 18.0F - 22F - 15 - - - - 0 mhos 100 - None None - -
02/27/2017 04:11 Ice Watch 18.0F - 22F - 15 - - - - 0 mhos 99 - None None - -
Date/Time
(MST)
Sf
Temp Chem Water Layer Surface Precipitation
Sfc Pvt Sub Frz Factor Pct Dpth DpthThk IcePct Cond Salin FI Type Intens Accum Rate
02/27/2017 04:01 Ice Watch 18.3F - 22F - 15 - - - - 0 mhos 99 - None None - -
02/27/2017 03:57 Ice Watch 18.5F - 22F - 15 - - - - 0 mhos 99 - None None - -
02/27/2017 03:51 Ice Watch 18.9F - 22F - 15 - - - - 0 mhos 98 - None None - -
02/27/2017 03:42 Ice Watch 18.9F - 22F - 20 - - - - 0 mhos 101 - None None - -
02/27/2017 03:41 Ice Watch 18.9F - 22F - 20 - - - - 0 mhos 101 - None None - -
02/27/2017 03:31 Ice Watch 18.7F - 22F - 20 - - - - 0 mhos 104 - None None - -
02/27/2017 03:27 Ice Watch 18.3F - 22F - 20 - - - - 0 mhos 107 - None None - -
02/27/2017 03:21 Ice Watch 18.1F - 22F - 20 - - - - 0 mhos 108 - None None - -
02/27/2017 03:12 Ice Watch 18.0F - 22F - 20 - - - - 0 mhos 109 - None None - -
02/27/2017 03:11 Ice Watch 18.0F - 22F - 20 - - - - 0 mhos 109 - None None - -
02/27/2017 03:00 Ice Watch 18.1F - 22F - 20 - - - - 0 mhos 110 - None None - -
02/27/2017 02:57 Ice Watch 18.3F - 22F - 20 - - - - 0 mhos 110 - None None - -
Change End Date:

Copyright © 1998-2015 Vaisala, Inc.
All Rights Reserved
Send comments about the data to:
SCAN Web ® is a registered trademark of Vaisala, Inc.
SCAN Web Version 6.0